Погода в Польце

Россия / Республика Мордовия     54°12′01″N   43°46′42″E
темп.,
°C
ветер,
м/с
пор.,
м/с
влажн.,
%
обл.,
%
осадки,
мм/ч
давл.,
гПа
погр.,
м
23 сентября, чт
чт2300:00+8в349256 0.0 101472
03:00+9в4995100 0.3 1014395
06:00+9в41096100 0.4 1014433
09:00+11юв489359 0.8 1014508
12:00+15ююв6762100 0.2 10141443
15:00+15ююв5758100 0.1 10131435
18:00+9ююв4795100 2.1 1014342
21:00+9ююв3596100 7.1 1014321
24 сентября, пт
пт2400:00+9ююв2495100 1.9 1013231
03:00+9ююв2393100 1.9 1012130
06:00+8ю2393100 0.0 1012105
09:00+10ю3480100 0.0 1012410
12:00+13ю3460100 0.0 1011972
15:00+14ю355569 0.0 10101461
18:00+10юв357324 0.1 100990
21:00+8юв3684100 0.1 1010123
25 сентября, сб
сб2500:00+9юв258599 0.0 1009151
03:00+9юв1187100 0.1 100417
06:00+9вюв2389100 0.1 100893
09:00+10вюв2387100 0.1 1008155
12:00+12ю0070100 0.2 1008200
15:00+13ссз126298 0.3 1008550
18:00+11с117393 0.0 100910
21:00+9сз0181100 0.0 101010
26 сентября, вс
вс2600:00+8зюз228495 0.0 101013
03:00+8з2280100 0.0 101128
06:00+8зсз2490100 0.0 101196
09:00+9ююз1291100 1.0 101196
12:00+12ю1168100 0.3 1010661
15:00+12зсз1264100 0.3 1011896
18:00+10с2373100 0.1 101170
21:00+10св2585100 0.3 1012192
27 сентября, пн
пн2700:00+9ссв368888 0.1 1013228
03:00+7ссв389754 0.1 1015222
06:00+6ссв379561 0.0 1016191
09:00+10ссв468232 0.0 1018524
12:00+9св5683100 0.1 1020604
15:00+9св6884100 0.1 1022694
18:00+6св61189100 0.1 1024602
21:00+6всв61092100 0.6 1026732